TimeCDT,TemperatureF,Dew PointF,Humidity,Sea Level PressureIn,VisibilityMPH,Wind Direction,Wind SpeedMPH,Gust SpeedMPH,PrecipitationIn,Events,Conditions,WindDirDegrees,DateUTC
12:56 AM,57.0,52.0,83,29.86,10.0,WNW,8.1,-,N/A,,Overcast,290,2013-09-21 05:56:00
1:56 AM,57.0,52.0,83,29.86,10.0,West,5.8,-,N/A,,Overcast,280,2013-09-21 06:56:00
2:56 AM,55.9,50.0,80,29.86,10.0,WNW,9.2,-,N/A,,Mostly Cloudy,290,2013-09-21 07:56:00
3:56 AM,54.0,48.9,83,29.87,10.0,WNW,4.6,-,N/A,,Clear,300,2013-09-21 08:56:00
4:56 AM,53.1,48.9,86,29.88,10.0,NW,3.5,-,N/A,,Clear,320,2013-09-21 09:56:00
5:56 AM,51.1,48.0,89,29.90,10.0,West,4.6,-,N/A,,Clear,280,2013-09-21 10:56:00
6:56 AM,50.0,48.0,93,29.91,10.0,Calm,Calm,-,N/A,,Clear,0,2013-09-21 11:56:00
7:16 AM,51.8,48.2,88,29.93,10.0,West,3.5,-,N/A,,Mostly Cloudy,280,2013-09-21 12:16:00
7:43 AM,51.8,48.2,88,29.93,10.0,WNW,5.8,-,N/A,,Scattered Clouds,300,2013-09-21 12:43:00
7:56 AM,52.0,48.9,89,29.92,10.0,WNW,4.6,-,N/A,,Clear,300,2013-09-21 12:56:00
8:56 AM,55.0,48.9,80,29.92,10.0,West,8.1,-,N/A,,Partly Cloudy,280,2013-09-21 13:56:00
9:51 AM,55.4,48.2,77,29.94,10.0,WNW,9.2,-,N/A,,Mostly Cloudy,300,2013-09-21 14:51:00
9:56 AM,55.9,48.0,75,29.93,10.0,WNW,9.2,-,N/A,,Mostly Cloudy,290,2013-09-21 14:56:00
10:16 AM,57.2,46.4,67,29.94,10.0,NW,13.8,19.6,N/A,,Mostly Cloudy,320,2013-09-21 15:16:00
10:56 AM,57.0,46.0,67,29.93,10.0,NW,10.4,-,N/A,,Overcast,310,2013-09-21 15:56:00
11:56 AM,59.0,46.0,62,29.94,10.0,NNW,8.1,18.4,N/A,,Overcast,340,2013-09-21 16:56:00
12:56 PM,57.9,45.0,62,29.94,10.0,NW,11.5,-,N/A,,Overcast,320,2013-09-21 17:56:00
1:56 PM,60.1,46.0,60,29.93,10.0,West,8.1,-,N/A,,Mostly Cloudy,280,2013-09-21 18:56:00
2:56 PM,60.1,45.0,57,29.92,10.0,NW,11.5,-,N/A,,Partly Cloudy,320,2013-09-21 19:56:00
3:56 PM,63.0,46.9,56,29.90,10.0,Variable,5.8,-,N/A,,Scattered Clouds,0,2013-09-21 20:56:00
4:56 PM,63.0,46.9,56,29.90,10.0,WNW,9.2,-,N/A,,Clear,290,2013-09-21 21:56:00
5:56 PM,62.1,46.0,56,29.91,10.0,NW,6.9,-,N/A,,Clear,320,2013-09-21 22:56:00
6:56 PM,55.9,48.9,77,29.91,10.0,North,3.5,-,N/A,,Clear,350,2013-09-21 23:56:00
7:56 PM,51.1,48.0,89,29.92,10.0,Calm,Calm,-,N/A,,Clear,0,2013-09-22 00:56:00
8:56 PM,50.0,46.9,89,29.94,10.0,Calm,Calm,-,N/A,,Clear,0,2013-09-22 01:56:00
9:56 PM,48.9,46.0,90,29.95,10.0,Calm,Calm,-,N/A,,Clear,0,2013-09-22 02:56:00
10:56 PM,46.0,44.1,93,29.96,10.0,Calm,Calm,-,N/A,,Clear,0,2013-09-22 03:56:00
11:56 PM,45.0,43.0,93,29.96,10.0,Calm,Calm,-,N/A,,Clear,0,2013-09-22 04:56:00